Find Checkmate 5

NORAD ID: 56163 Int'l Des: 2023-050 Owner: SDA Country: US operational
LEOCIRCULARPOLAR

当前视图

正在加载3D地球...

关于 Checkmate 5

正在加载描述...

即将过境

Passes for default location (London). Set your location on the main map for personalized predictions.

高度历史

Loading altitude history...

两行轨道根数

1 56163U 23050B 26151.14612007 .00000098 00000-0 77237-4 0 9994
2 56163 81.0009 87.9069 0006881 14.8855 345.2502 13.84981300159805
Epoch: May 31, 2026 • Age: 7 hours

当前状态

高度 944.1 km
速度 7.38 km/s
星下点 0.61°N, 42.11°E
发射日期 Apr 2, 2023
运行时间 3.1 years
类型 other

技术详情

分类 Payload
质量 300.00 kg
干质量 300.00 kg
总质量 300.00 kg
长度 1.00 m
直径 0.60 m
跨度 2.00 m
形状 Box + panels
制造商 YORKSS
平台类型 S-Class
阶段状态 In Orbit
所有者/国家 SDA/US

Most Searched